Home   Weather   Miami Beach   Past weeks
Flag for USA

Past Weather in Miami Beach, Florida, USA — Yesterday and Last 2 Weeks

Now
82 °F

Passing clouds.


Feels Like: 89 °F
Forecast: 90 / 83 °F
Wind: 3 mph from Southeast

Location: Miami International Airport
Current Time: Aug 14, 2020 at 8:06:49 am
Latest Report: Aug 14, 2020 at 6:53 am
Visibility: 10 mi
Pressure29.98 "Hg
Humidity: 79%
Dew Point: 75 °F
Location of Miami BeachLocation

Past Weather in Miami Beach — Graph

°F

Miami Beach Temperature Yesterday

Maximum temperature yesterday: 91 °F (at 11:53 am)
Minimum temperature yesterday: 82 °F (at 3:22 am)
Average temperature yesterday: 86 °F

High & Low Weather Summary for the Past Weeks

 TemperatureHumidityPressure
High94 °F (Jul 31, 12:53 pm)100% (Aug 5, 7:17 pm)30.15 "Hg (Aug 5, 7:17 pm)
Low71 °F (Aug 5, 9:53 pm)49% (Jul 31, 12:53 pm)29.71 "Hg (Aug 2, 3:53 am)
Average85 °F76%29.99 "Hg
* Reported Jul 30 6:53 am — Aug 14 6:53 am, Miami Beach. Weather by CustomWeather, © 2020

Note: Actual official high and low records may vary slightly from our data, if they occured in-between our weather recording intervals... More about our weather records

Miami Beach Weather History for the Previous 24 Hours

Scroll right to see more
 ConditionsComfort  
Time TempWeatherWind HumidityBarometerVisibility
6:53 am
Fri, Aug 14
82 °FPassing clouds.3 mph79%29.98 "Hg10 mi
5:53 am83 °FPassing clouds.6 mph74%29.97 "Hg10 mi
4:53 am83 °FPassing clouds.5 mph82%29.96 "Hg10 mi
3:53 am83 °FPassing clouds.7 mph85%29.97 "Hg10 mi
2:53 am83 °FPassing clouds.7 mph82%29.97 "Hg10 mi
1:53 am84 °FPassing clouds.9 mph80%29.99 "Hg10 mi
12:53 am84 °FPassing clouds.6 mph83%30.02 "Hg10 mi
11:53 pm
Thu, Aug 13
84 °FPartly cloudy.9 mph83%30.02 "Hg10 mi
10:53 pm86 °FPassing clouds.10 mph72%30.01 "Hg10 mi
9:53 pm86 °FPassing clouds.13 mph70%30.01 "Hg10 mi
8:53 pm86 °FPassing clouds.8 mph72%30.00 "Hg10 mi
7:53 pm87 °FScattered clouds.9 mph65%29.98 "Hg10 mi
6:53 pm88 °FScattered clouds.10 mph61%29.97 "Hg10 mi
5:53 pm90 °FScattered clouds.13 mph56%29.96 "Hg10 mi
4:53 pm91 °FScattered clouds.15 mph54%29.96 "Hg10 mi
3:53 pm91 °FBroken clouds.8 mph57%29.97 "Hg10 mi
2:53 pm90 °FPartly sunny.13 mph63%30.00 "Hg10 mi
1:53 pm90 °FPartly sunny.10 mph61%30.02 "Hg10 mi
12:53 pm91 °FBroken clouds.9 mph61%30.03 "Hg10 mi
11:53 am91 °FBroken clouds.6 mph60%30.05 "Hg10 mi
10:53 am90 °FScattered clouds.13 mph57%30.06 "Hg10 mi
9:53 am87 °FScattered clouds.8 mph67%30.05 "Hg10 mi
8:53 am86 °FBroken clouds.10 mph75%30.03 "Hg10 mi
Weather by CustomWeather, © 2020

See weather overview